GPS BIIRM-8 (PRN 05)

Last updated on July 6, 2021, 3:39 p.m. UTC

1 35752U 09043A   21186.78341071 -.00000064  00000-0  00000-0 0  9998
2 35752  54.8182  99.5168 0059912  51.6403 315.2175  2.00536756 87110
UTC
Height (km)
Latitude
Longitude
Inclination
Orbital Period
UTC large
Height (km)
Speed (km/s)
/
Latitude / Longitude
Inclination (degrees)
Orbital Period (minutes)
Azimuth
Elevation
Range (km)
Doppler Factor
iOS Compass Heading
iOS Angle